Flag for Germany Weather past 2 weeks in Lünen, North Rhine-Westphalia, Germany

Now
61 °F

Clear.


Feels Like: 61 °F
Forecast: 68 / 86 °F
Wind: 2 mph from North

Location: Dortmund / Wickede

Current Time: Aug 30, 2015 at 6:31:08 AM

Latest Report: Aug 30, 2015 at 5:50 AM


Visibility: 10 mi

Pressure: 30.04 "Hg

Humidity: 88%

Dew point: 57 °F

Location of LünenLocation

Historic Weather in Lünen — Graph

°F

Lünen temperature yesterday

Maximum temperature yesterday: 75 °F (at 3:20 PM)
Minimum temperature yesterday: 52 °F (at 5:50 AM)
Average temperature yesterday: 67 °F

Past Weeks' High & Low Weather Summary

 TemperatureHumidityPressure
High79 °F (Aug 22, 4:20 PM)94% (Aug 16, 6:20 AM)30.24 "Hg (Aug 16, 6:20 AM)
Low50 °F (Aug 19, 5:20 AM)26% (Aug 22, 4:50 PM)29.56 "Hg (Aug 24, 2:50 PM)
Average65 °F66%29.96 "Hg
* Reported Aug 14 10:20 PM — Aug 29 10:20 PM, Lünen, Weather by CustomWeather, © 2015

Note: Actual official high and low records may vary slightly from our data, if they occured in-between our weather recording intervals... More about our weather records

Advertising

Lünen weather history for previous 24 hours

 ConditionsComfort  
Time TempWeatherWind HumidityBarometerVisibility
10:20 PM
Sat, Aug 29
66 °FClear.3 mph73%30.12 "Hg10 mi
9:50 PM68 °FClear.3 mph69%30.12 "Hg10 mi
9:20 PM68 °FSunny.3 mph69%30.12 "Hg10 mi
8:50 PM68 °FPassing clouds.5 mph69%30.12 "HgN/A
8:20 PM68 °FPassing clouds.5 mph69%30.12 "HgN/A
7:50 PM70 °FSunny.5 mph64%30.12 "Hg10 mi
7:20 PM72 °FSunny.5 mph61%30.12 "Hg10 mi
6:50 PM73 °FScattered clouds.3 mph61%30.12 "HgN/A
6:20 PM72 °FScattered clouds.7 mph61%30.12 "HgN/A
5:50 PM73 °FPartly sunny.5 mph61%30.12 "HgN/A
5:20 PM73 °FPartly sunny.5 mph53%30.12 "HgN/A
4:50 PM73 °FPartly sunny.6 mph50%30.15 "HgN/A
4:20 PM75 °FPassing clouds.6 mph50%30.15 "HgN/A
3:50 PM73 °FSunny.3 mph53%30.15 "Hg10 mi
3:20 PM75 °FSunny.2 mph47%30.15 "Hg10 mi
2:50 PM73 °FPassing clouds.5 mph53%30.15 "HgN/A
2:20 PM72 °FSunny.3 mph53%30.18 "Hg10 mi
1:50 PM72 °FPassing clouds.5 mph57%30.18 "HgN/A
1:20 PM72 °FPassing clouds.6 mph53%30.18 "HgN/A
12:50 PM70 °FPassing clouds.3 mph53%30.21 "HgN/A
11:50 AM68 °FScattered clouds.5 mph53%30.21 "HgN/A
11:20 AM66 °FScattered clouds.3 mph60%30.21 "HgN/A
10:50 AM66 °FPassing clouds.3 mph64%30.21 "HgN/A
9:20 AM61 °FPassing clouds.5 mph72%30.21 "HgN/A
8:50 AM57 °FSunny.8 mph77%30.21 "Hg10 mi
7:50 AM54 °FSunny.12 mph82%30.18 "Hg10 mi
7:20 AM52 °FClear.8 mph88%30.21 "Hg10 mi
6:50 AM52 °FClear.8 mph88%30.18 "Hg10 mi
6:20 AM52 °FClear.8 mph88%30.18 "Hg10 mi
Weather by CustomWeather, © 2015

See weather overviewHow to use our weather pages